Simultaneous Nadir Overpasses (SNOs) Predictions

Prediction of SNOs between NOAA-19 and TERRA Satellite Orbit:

Table of predicted SNOs for the next 14.0 days since TLE Epoch: 10/9/2018
Index Date (NOAA-19) Time (NOAA-19) Lat,Lon (NOAA-19) SZA (NOAA-19 ) Date (TERRA) Time (TERRA) Lat,Lon (TERRA) SZA (TERRA ) Distance(km) Time Diff (sec)
1 10/10/2018 16:04:47 -77.59, 136.91 94.84 10/10/2018 16:05:58 -77.59, 136.75 94.83 3.97 71
2 10/10/2018 16:55:42 77.56, -55.68 85.16 10/10/2018 16:55:24 77.57, -55.68 85.17 1.65 18
3 10/12/2018 22:29:19 -77.59, 40.86 93.98 10/12/2018 22:29:07 -77.58, 40.93 93.98 1.70 12
4 10/15/2018 04:02:45 77.57, 137.64 86.87 10/15/2018 04:02:48 77.60, 137.56 86.88 3.25 3
5 10/17/2018 09:36:22 -77.60,-125.84 92.29 10/17/2018 09:36:31 -77.60,-125.84 92.29 0.17 9
6 10/17/2018 10:27:10 77.30, 42.93 87.57 10/17/2018 10:26:01 77.40, 40.96 87.47 49.18 69
7 10/19/2018 15:09:48 77.60, -29.11 88.54 10/19/2018 15:10:12 77.61, -29.25 88.54 3.49 24
8 10/19/2018 16:00:53 -77.58, 138.21 91.46 10/19/2018 15:59:40 -77.59, 138.31 91.48 2.35 73
9 10/21/2018 20:43:24 -77.65, 67.33 90.63 10/21/2018 20:43:54 -77.61, 67.35 90.66 3.95 30




NCC Satellite Simultaneous Nadir Overpasses (SNOs) Prediction Service
